{"data":{"norad_id":58998,"intl_designator":"2024-036A","name":"STARLINK-31468","alt_names":[],"object_type":"PAYLOAD","status":"ACTIVE","operator":null,"country":"US","launch_date":"2024-02-23","launch_site_code":"AFWTR","launch_vehicle":null,"mission":null,"orbit_class":"UNKNOWN","rcs_meters":null,"size_class":null,"mass_kg":null,"dimensions":null,"purposes":["comms"],"wikipedia_slug":null,"has_3d_model":false,"image_url":null,"decayed_at":null,"tle_current":{"epoch":"2026-05-25T02:01:18.009408Z","epoch_age_seconds":61159,"freshness":"FRESH","line1":"1 58998U 24036A   26145.08423622  .00003271  00000+0  12247-3 0  9990","line2":"2 58998  53.1605  83.0033 0001304  99.3394 260.7754 15.30215550127034","mean_motion":15.3021555,"eccentricity":0.0001304,"inclination_deg":53.1605,"raan_deg":83.0033,"arg_perigee_deg":99.3394,"mean_anomaly_deg":260.7754,"bstar":0.00012247,"rev_number":12703,"period_min":94.104389411021,"perigee_km":474.27496925991,"apogee_km":476.06231137091,"semimajor_km":6853.3056403154,"source":"CELESTRAK","updated_at":"2026-05-25T13:38:18.797701Z"}}}